Bodensee (Kressbronn): 6,7°C  -  Teich der Wetterzentrale Bad Schussenried: 5,6°C |  Schneehöhe Kreuzthal-Steinberg (930 m ü. NN): 8 cm   
01.04.2020Höhe
ü. NN
ZeitTemperatur (°C)Nieder-
schlag
Luft-
feuchte
Luft-
druck
Wind
StationaktuellMinimumMaximumaktuellMaximum
Aldingen654 m06:46-5,0-5,1 (07:35)-0,3 (16:02)0,0 l/m²81%1023,40,0 km/h (0 Bft) W29,6 km/h (5 Bft) W (14:48)
Allmendingen541 m06:45-6,4-6,4 (07:35)-2,1 (15:10)0,0 l/m²87%1023,11,6 km/h (1 Bft) NO35,4 km/h (5 Bft) O (15:35)
Altshausen574 m06:45-4,1-4,1 (06:33)-1,1 (00:16)0,0 l/m²67%1020,54,8 km/h (1 Bft) N11,3 km/h (2 Bft) N (06:10)
Amstetten-Reutti663 m06:45-4,6-4,7 (06:35)-1,5 (16:55)0,0 l/m²87%1022,86,4 km/h (2 Bft) W48,3 km/h (6 Bft) W (15:55)
Amtzell-Grenis677 m06:45-3,2-4,1 (06:05)-1,4 (00:00)0,0 l/m²61%1022,412,9 km/h (3 Bft) NO12,9 km/h (3 Bft) N (06:45)
Aulendorf570 m06:45-3,0-3,0 (06:19)-0,5 (00:00)0,0 l/m²72%1021,66,4 km/h (2 Bft) N-NO14,5 km/h (3 Bft) O-NO (05:13)
Bad Krozingen233 m06:45-2,3-2,3 (06:45)3,7 (16:05)0,0 l/m²78%1023,41,7 km/h (1 Bft) S-SW38,1 km/h (5 Bft) N (17:05)
Bad Saulgau595 m06:45-5,1-5,2 (07:00)-1,9 (15:00)0,0 l/m²87%1021,40,0 km/h (0 Bft) S-SO25,7 km/h (4 Bft) S (11:35)
Bad Saulgau, Mannsgrab588 m06:43-4,7-6,1 (05:34)-1,7 (00:17)0,0 l/m²86%1023,90,0 km/h (0 Bft) NW0,0 km/h (0 Bft) N (00:00)
Bad Saulgau-Lampertsweiler627 m06:45-4,2-4,8 (06:15)0,2 (00:00)0,0 l/m²82%1024,58,0 km/h (2 Bft) N-NW22,5 km/h (4 Bft) N-NW (01:15)
Bad Schussenried572 m06:45-4,1-4,2 (06:45)-1,1 (00:00)0,0 l/m²87%1021,00,0 km/h (0 Bft) NO9,7 km/h (2 Bft) NO (03:15)
Bergatreute615 m01:45-0,7-0,7 (00:45)0,0 (00:00)0,0 l/m²77%1023,512,9 km/h (3 Bft) NO16,1 km/h (3 Bft) O-NO (01:40)
Biberach (Riss), Boehringer533 m06:50-4,3-4,4 (06:50)-1,1 (00:30)0,0 l/m²89%1021,84,3 km/h (1 Bft) N-NW11,9 km/h (3 Bft) N (03:00)
Biberach (Riss), Realschule553 m06:45-4,1-4,1 (06:35)-0,3 (00:00)0,0 l/m²87%1023,712,9 km/h (3 Bft) N-NW12,9 km/h (3 Bft) N (06:05)
Burgrieden523 m06:45-4,2-4,2 (06:45)-0,4 (00:00)0,0 l/m²82%1022,70,0 km/h (0 Bft) NO4,8 km/h (1 Bft) O-NO (02:50)
Burgrieden-Hochstetten510 m06:40-4,7-4,7 (07:00)-0,9 (15:40)0,0 l/m²89%1023,24,8 km/h (1 Bft) N-NO25,7 km/h (4 Bft) NO (12:55)
Ebersbach579 m06:45-3,7-3,8 (05:55)-0,1 (00:00)0,0 l/m²86%1023,09,7 km/h (2 Bft) N16,1 km/h (3 Bft) NO (01:25)
Ebersbach-Boos605 m06:45-4,4-4,4 (06:45)-0,1 (00:00)0,0 l/m²89%1022,714,5 km/h (3 Bft) NO22,5 km/h (4 Bft) O (01:00)
Ebersbach-Menzenweiler661 m06:45-3,8-3,9 (06:20)-0,6 (00:00)0,0 l/m²88%1022,719,3 km/h (3 Bft) NO24,1 km/h (4 Bft) O-NO (01:05)
Ehingen535 m01:10-2,5-2,5 (01:10)-1,3 (00:05)0,0 l/m²70%1025,40,0 km/h (0 Bft) N-NO5,0 km/h (1 Bft) N-NO (00:15)
Erlenmoos645 m06:45-3,7-3,7 (06:45)-0,9 (00:00)0,0 l/m²85%1022,70,0 km/h (0 Bft) NO12,9 km/h (3 Bft) O-NO (01:35)
Ertingen569 m06:45-3,6-3,6 (06:40)-0,6 (00:00)0,0 l/m²84%1022,74,8 km/h (1 Bft) N16,1 km/h (3 Bft) N-NO (04:10)
Friedrichshafen405 m06:45-1,8-1,8 (07:00)0,9 (13:30)0,0 l/m²78%1022,511,3 km/h (2 Bft) NO27,4 km/h (4 Bft) NO (15:10)
Günzburg443 m06:45-4,9-4,9 (06:45)-1,1 (00:00)0,0 l/m²87%1020,70,0 km/h (0 Bft) NO0,0 km/h (0 Bft) NO (00:00)
Hochdorf-Appendorf537 m06:45-5,3-5,8 (06:05)-1,7 (00:15)0,0 l/m²66%1022,66,4 km/h (2 Bft) N-NO14,5 km/h (3 Bft) N-NW (03:20)
Höchsten802 m06:45-4,4-4,4 (06:45)-1,4 (00:00)0,0 l/m²83%1020,320,9 km/h (4 Bft) N-NO25,7 km/h (4 Bft) NO (02:45)
Horgenzell618 m06:45-1,9-1,9 (03:45)-0,6 (00:05)0,0 l/m²76%1020,04,8 km/h (1 Bft) N-NO19,3 km/h (3 Bft) N-NO (00:50)
Hoßkirch632 m06:45-6,3-6,6 (06:20)-1,0 (00:15)0,0 l/m²89%1021,53,2 km/h (1 Bft) O-SO14,5 km/h (3 Bft) O-NO (00:20)
Isny, Am Dreifingerbach695 m06:45-5,8-6,2 (06:25)0,1 (01:00)0,0 l/m²87%1021,20,0 km/h (0 Bft) W14,5 km/h (3 Bft) O-NO (01:05)
Isny, Weidachweg706 m06:45-4,8-4,8 (06:45)0,3 (00:25)0,0 l/m²78%1023,60,0 km/h (0 Bft) W12,9 km/h (3 Bft) W (00:10)
Kappel-Grafenhausen163 m06:40-1,8-1,8 (07:00)3,3 (14:55)0,0 l/m²78%1021,10,0 km/h (0 Bft) N30,6 km/h (5 Bft) N-NO (16:55)
Kißlegg-Staibshof709 m06:45-3,4-3,4 (06:30)-0,9 (00:00)0,0 l/m²82%1022,312,9 km/h (3 Bft) N-NO14,5 km/h (3 Bft) O (01:50)
Kressbronn398 m06:46-2,4-2,4 (06:40)1,4 (00:00)0,0 l/m²77%1021,10,0 km/h (0 Bft) NO22,5 km/h (4 Bft) NO (00:54)
Kreuzthal-Steinberg-Alpe930 m06:40-4,7-4,8 (06:40)-2,5 (00:00)0,0 l/m²89%1022,02,2 km/h (1 Bft) W-SW22,0 km/h (4 Bft) W-NW (00:10)
Kreuzthal-Steinberggipfel1040 m06:40-3,6-4,0 (02:20)-3,1 (00:10)-74%1022,012,6 km/h (3 Bft) O37,1 km/h (5 Bft) O-SO (00:10)
Kristberg im Montafon (AT)1425 m06:45-6,3-6,6 (04:51)-5,3 (00:40)0,0 l/m²56%1026,35,0 km/h (1 Bft) N10,1 km/h (2 Bft) NO (01:47)
Laupheim500 m06:45-4,0-4,0 (06:35)0,0 (00:00)0,0 l/m²83%1022,24,8 km/h (1 Bft) O9,7 km/h (2 Bft) O-SO (00:20)
Leutkirch-Heggelbach670 m06:45-4,7-4,7 (06:20)-2,6 (00:30)0,0 l/m²87%1021,54,8 km/h (1 Bft) NO8,0 km/h (2 Bft) N-NO (03:30)
Lindau-Insel420 m06:45-1,4-1,4 (07:25)1,8 (14:55)0,0 l/m²74%1021,50,0 km/h (0 Bft) O-NO29,0 km/h (5 Bft) NO (17:05)
Lindau-Stadt412 m06:45-2,4-2,4 (07:25)1,2 (14:55)0,0 l/m²77%1021,81,6 km/h (1 Bft) NO33,8 km/h (5 Bft) N-NO (15:40)
Maierhöfen im Allgäu733 m06:45-4,6-4,6 (06:45)-1,2 (01:35)0,0 l/m²78%1021,80,0 km/h (0 Bft) NW25,7 km/h (4 Bft) O-SO (02:05)
Maselheim543 m06:45-5,1-5,1 (07:25)-2,3 (13:20)0,0 l/m²87%1023,24,8 km/h (1 Bft) N24,1 km/h (4 Bft) O-NO (15:20)
Maselheim-Sulmingen548 m06:45-5,4-5,4 (07:05)-2,2 (15:15)0,0 l/m²90%1024,31,6 km/h (1 Bft) NW20,9 km/h (4 Bft) N-NO (12:15)
Mietingen-Baltringen528 m06:45-4,8-5,0 (06:35)-1,3 (00:45)0,0 l/m²87%1024,70,0 km/h (0 Bft) O-NO4,8 km/h (1 Bft) N-NO (01:20)
Mindelheim-Apfeltrach620 m06:46-5,8-5,8 (06:29)-2,7 (00:00)0,0 l/m²88%1024,00,0 km/h (0 Bft) NO0,0 km/h (0 Bft) O-NO (00:00)
Mittelbiberach577 m06:46-4,5-4,5 (06:34)-1,0 (00:16)0,0 l/m²84%1023,84,8 km/h (1 Bft) N12,8 km/h (3 Bft) NO (05:56)
Neresheim552 m06:01-6,8-6,8 (06:01)-2,0 (00:00)0,0 l/m²89%1021,70,0 km/h (0 Bft) O4,0 km/h (1 Bft) NO (01:00)
Neukirch570 m06:45-3,2-3,2 (07:05)-0,9 (14:35)0,0 l/m²81%1021,98,0 km/h (2 Bft) N-NO37,0 km/h (5 Bft) N-NO (11:55)
Ochsenhausen, Birkenstraße613 m06:45-5,5-5,5 (07:10)-2,2 (12:50)0,0 l/m²82%1023,21,6 km/h (1 Bft) NO3,2 km/h (1 Bft) S-SW (07:05)
Ochsenhausen, Unt. Wiesen575 m06:45-5,4-5,7 (06:15)-2,4 (00:00)0,0 l/m²89%1024,40,0 km/h (0 Bft) NO4,8 km/h (1 Bft) NO (00:00)
Opfenbach-Göritz561 m06:46-4,7-5,2 (05:22)-2,8 (00:00)0,0 l/m²75%1019,90,0 km/h (0 Bft) N-NO6,5 km/h (2 Bft) O-NO (00:18)
Ostrach619 m06:45-3,7-3,8 (04:15)-0,6 (00:00)0,0 l/m²89%1021,06,4 km/h (2 Bft) N12,9 km/h (3 Bft) N-NW (06:30)
Ravensburg, Goethestraße428 m06:45-1,9-1,9 (06:30)1,3 (00:00)0,0 l/m²80%1021,817,7 km/h (3 Bft) NO17,7 km/h (3 Bft) NO (06:45)
Ravensburg-Wernsreute511 m06:45-3,2-3,2 (06:25)0,0 (15:50)0,0 l/m²83%1024,616,1 km/h (3 Bft) N35,4 km/h (5 Bft) N-NO (11:45)
Reichenbach an der Fils343 m06:45-2,3-2,3 (06:45)1,0 (00:00)0,0 l/m²77%1025,30,0 km/h (0 Bft) SO12,9 km/h (3 Bft) O-SO (05:10)
Riedlingen530 m06:45-3,4-3,4 (06:30)-1,0 (00:00)0,0 l/m²82%1023,00,0 km/h (0 Bft) O-NO0,0 km/h (0 Bft) N (00:00)
Rißtissen489 m06:45-3,3-3,3 (06:30)-0,2 (00:00)0,0 l/m²85%1020,50,0 km/h (0 Bft) O-NO8,0 km/h (2 Bft) O-NO (03:30)
Rottweil-Hausen681 m06:43-4,4-4,4 (05:57)-1,9 (00:00)0,0 l/m²82%1023,76,5 km/h (2 Bft) N6,5 km/h (2 Bft) N (02:14)
Schemmerhofen520 m06:452,72,7 (00:00)2,7 (00:00)0,0 l/m²55%1021,80,0 km/h (0 Bft) NO0,0 km/h (0 Bft) NO (00:00)
Silbertal im Montafon (AT)884 m06:46-4,4-4,4 (06:14)-1,6 (00:01)0,0 l/m²85%1026,20,0 km/h (0 Bft) O-NO0,0 km/h (0 Bft) O-NO (00:00)
Tettnang466 m06:44-1,6-1,6 (06:26)1,0 (00:00)0,0 l/m²72%1021,73,2 km/h (1 Bft) N16,2 km/h (3 Bft) O-SO (01:07)
Tuttlingen648 m06:41-4,1-4,5 (06:31)-2,1 (00:01)0,0 l/m²76%1023,40,0 km/h (0 Bft) N-NO5,2 km/h (1 Bft) W-SW (03:26)
Tuttlingen, Möhringer-Vorstadt711 m06:45-4,3-4,5 (07:10)-2,4 (16:05)0,0 l/m²82%1022,54,8 km/h (1 Bft) O-NO25,7 km/h (4 Bft) N-NW (12:35)
Ummendorf547 m06:45-4,7-4,8 (06:30)-0,7 (00:10)0,0 l/m²69%1023,70,0 km/h (0 Bft) O-NO16,1 km/h (3 Bft) O (01:05)
Ummendorf-Fischbach558 m06:45-5,1-5,4 (06:15)-1,9 (01:25)0,0 l/m²70%1023,60,0 km/h (0 Bft) O4,8 km/h (1 Bft) O (04:20)
Waldburg707 m06:45-3,4-3,4 (06:45)-0,8 (00:00)0,0 l/m²80%1021,44,8 km/h (1 Bft) N19,3 km/h (3 Bft) N (02:35)
Waltenhofen im Allgäu720 m06:45-7,3-7,3 (06:15)-2,2 (01:05)0,0 l/m²90%1022,30,0 km/h (0 Bft) W17,7 km/h (3 Bft) W (11:50)
Wangen, Südring548 m06:45-4,1-4,1 (06:25)-0,3 (00:00)0,0 l/m²85%1021,44,7 km/h (1 Bft) NO13,0 km/h (3 Bft) NO (01:25)
Warthausen-Birkenhard581 m06:44-4,4-4,4 (06:32)-1,2 (00:00)0,0 l/m²86%1023,411,9 km/h (3 Bft) N13,7 km/h (3 Bft) NO (06:13)
Winterlingen785 m06:45-5,3-5,6 (06:30)-2,8 (01:00)0,0 l/m²83%1022,31,8 km/h (1 Bft) N-NO3,6 km/h (1 Bft) NO (00:55)

niederschlagsdatenbank | info | login - erfassung

Sollten Sie Interesse haben, an der Niederschlagsdatenbank teilzunehmen, finden Sie > hier < weitere Informationen.
Datum: . . Kalender
Anmerkung:0,0 = nicht messbarer Niederschlag
 -  = kein Niederschlag
 k  = kumulierter Niederschlag

< 24.03.201926.03.2019 >


Niederschlagswerte vom 25.03.2019    -    derzeit 112 Stationen

Die Niederschlagswerte des gewählten Tages lassen sich durch Klicken auf das Datum sortieren.
Die Angaben sind in l/m².

Station22.03.23.03.24.03.25.03.26.03.27.03.28.03.Bemerkung 25.03.
Aichstetten Ulmenstraße 7-------
Aichstetten-Nestbaum Nestbaum-------
Albbruck Furmisstr. 18-------
Sonne, ab dem Nachmittag zeitweise bewölkt +16°C Nachts +2°C
Allmendingen Querqueviller Ring 6---2,5-0,5-
Schneeregen Graupel
Amstetten-Reutti Gassenäcker 13---5,0---
Regen Schnee Graupel Gewitter
Aulendorf Steinenbacher Weg 33---0,8---
Schneeregen Schnee
Aulendorf-Blönried Heuweg 32---1,5---
Schnee Graupel
Bad Bellingen Rheinstraße 76-------
Bad Buchau Hanfweiher 1---3,0---
Regen Schnee Graupel
Bad Saulgau Walserweg---0,0---
Regen Schnee
Bad Saulgau-Hochberg Lampertsweiler Straße 12---0,5---
Bad Schussenried Konradstraße---0,9---
Regen Schneeregen Graupel Eiskörner
Bad Schussenried Lortzingstrasse---2,0---
Regen Schnee
Bad Schussenried Klosterstraße---1,0---
Regen Schnee
Bad Schussenried Theodor-Storm-Strasse---2,0---
Regen
Bad Schussenried-Hopferbach Unterer Öschweg 16/1---1,0---
Regen Schnee Graupel
Bad Schussenried-Lufthütte Hauptgasse 170,0-0,01,00,00,00,0
Bad Schussenried-Sattenbeuren Ortsstraße 7-------
Bad Schussenried-Schwaigfurt Schwaigfurt 2---1,8---
Bad Waldsee-Haisterkirch Zur Spitzenkapelle 1---1,00,1--
0/+8°C, bewölkt, kühl, nachts Schnee
Schnee
Bad Wurzach-Seibranz Kimpflerhof 2 ---4,0---
Baienfurt Untere Bergstrasse 7---1,0---
Schneeregen
Balzheim Hinterm Liess 19---1,50,51,0-
Nieselregen Graupel
Berg-Kleintobel Kleintobel-------
Biberach Amriswilstrasse---2,10,0--
Schneeregen Schnee Schneegriesel
Biberach Strölinweg---2,00,0--
Regen
Biberach Erlenweg-------
Biberach Neue Heimat 5---2,8---
Regen Schneeregen
Biberach Mittelbergstraße 9---3,00,0--
Schneeregen Graupel
Biberach Auf dem Lindele-------
Biberach-Bergerhausen Löcherstr.1---3,00,0--
Schnee
Bierstetten Schloßbühl 6---1,0---
Blaubeuren-Pappelau Sotzenhauserstr.7---5,0---
Regen Schneeregen Schnee Gewitter
Bühlertal Wolfinstraße 16---5,0---
Regen
Dettingen a. d. Iller Schleifweg 4-------
Dornstadt-Tomerdingen Maienweg 9---3,10,3--
Dürnau Dorfäckerweg 5---0,1---
Regen Graupel
Eberhardzell Lilienweg---2,1---
Ebersbach-Roßwälden Appenwiesen---2,10,0--
April wetter! Immer wieder Regen und Schneeschauer. 4,1 bis 7,5 Gra [weiterlesen...]
Regen Schnee
Ehingen Rosenstraße---1,40,50,00,0
Regen Schneeregen Schnee Graupel
Ehingen Zanderstraße-------
Ehingen Schlaufenbühl---1,52,0--
Schneeregen
Ehingen Schillerstraße-------
Ehingen-Herbertshofen Tobelweg 9-------
Eislingen Albstraße 125---2,90,00,0-
Regen Schneeregen Graupel Gewitter
Erbach-Bach Hauptstraße 24---3,00,80,2-
Erlenmoos Haldenweg 15---6,90,0--
Regen Schnee Graupel
Füramoos Hungersberg 1--0,00,02,7--
Gutenzell Kleinser Berg 1---3,50,0--
Gutenzell-Hürbel Bei der Sägmühle 1---5,00,0--
Schnee
Herbertingen Drosselweg---0,5-0,0-
Gegen 15 Uhr kam das Aprilwetter an!Allgemein " zwoi Kitt'l [weiterlesen...]
Regen Schneeregen Schnee Graupel
Herbertingen Hirschstrasse-------
Hochdorf-Schweinhausen Lindenweg 2---3,6---
Hohentengen-Bremen Bremer Halde 4---0,2---
Graupel
Horgenzell-Ringgenweiler Ringgenweiler 620---0,3---
Hüttisheim Ulmer Weg 2---3,02,00,5-
Schneeregen Schnee Graupel
Illerkirchberg Mahdauweg 20---3,20,60,3-
Regen Schneeregen Schnee
Illerrieden-Wangen Am Muckenberg 12---1,01,50,5-
Immenstaad Stockwiesen 10-------
Inzigkofen Butzenweg 1---0,6---
Regen Schnee Graupel
Isny Am Dreifingerbach 39---1,6---
Schnee Graupel
Kirchberg Rosenstr. 7---2,1---
Schnee
Kreuzthal-Steinberg-Alpe Im Kreuzbachthal 85---3,1---
Regen Schneeregen Schnee
Schneehöhe: 10 cm
Langenau Wasserstr. 54-1---2,01,0--
Langenenslingen Schattenweiler Str. 180,00,0-0,40,0--
Regen Nieselregen Bodennebel
Leutkirch Unterer Auenweg 25---28,9---
Schnee
Leutkirch Nachtigallenweg 28---2,5---
Schnee
Leutkirch-Adrazhofen Bergstraße 20---2,50,5--
Merklingen Millergasse 9-------
Mietingen Seerosenweg 10-------
Mietingen-Walpertshofen Bussenweg 31-------
Mittelbiberach-Reute Rindenmooser Straße 2---2,0---
Regen Schneeregen Graupel
Moosburg Käserweg 5---0,6---
Deutlich kühler als zuletzt, zumeist bewölkt. Gegen Abend einzelne S [weiterlesen...]
Münsingen-Rietheim In der Lise 20---1,8---
Schnee Graupel
Neresheim Alfred-Delp-Straße 8---0,70,5--
Graupel Gewitter
Oberdischingen Normannenstraße 7-------
Ochsenhausen Ehrensberger Weg 5---4,70,00,1-
Schneeregen Schnee
Öpfingen Hauptstraße 99---2,01,5-0,0
Regen Schneeregen
Ostrach Uhlandweg---0,0---
Regen Schneeregen
Pfaffenhofen-Kadeltshofen Mühlbachstraße 4---1,00,01,0-
Pfullendorf Am Schweizersbild -------
Rangendingen Donaustraße 19---2,0---
Ravensburg Bleicherstraße8,3--1,1---
Ravensburg-Schmalegg St.-Magdalena-Ring 42---0,3---
Ravensburg-Wernsreute Wernsreute 25---0,2---
Regen
Ravensburg-Weststadt Karl-Erb-Ring 142---0,8---
Regen
Regensburg Orleansstraße 3-------
Riedhausen Blütenweg 13---0,0---
Temp. +0,0°C / + 8,4°C, Windböen N-NW 40,2 km/h
Schneegriesel
Riedlingen Berliner Str. 41-------
Riedlingen-Neufra Panoramaweg-------
Riedlingen-Neufra Riedlinger Strasse0,00,00,00,50,20,00,0
+ 3,1 Grad, 84 % LF, bedeckter Himmel
Schelklingen-Gundershofen Schwarzer-Straße 14---2,50,5--
Temp. zw. +0,8°C und +6,5°C. Wolkig und kalter Wind. Mittags kurzer [weiterlesen...]
Schemmerberg Drosselweg 9---4,01,0--
Schwörstadt Schulstrasse 19-------
Seekirch Haldenberg 7-------
Sigmaringendorf Weingartenstraße 7---0,9---
Regen Schneeregen Schnee Graupel
Tuttlingen Möhringerstraße 11---1,4---
Regen Schneeregen Schnee Graupel Gewitter
Ulm Eberhardtstraße 75----1,80,20,0
Ummendorf Tulpenweg---2,20,0--
Schneeregen Schnee
Ummendorf Friedrich-Schiller-Str.-------
Uttenweiler-Ahlen Seekircher Straße 8---1,0---
Regen
Vöhringen (Schwarzwald) Drosselweg 3---2,0---
Waldburg Kastanienweg11---2,5---
Wangen-Bergerhöhe Berg 2---1,6---
Warthausen An der Schloßhalde -------
Warthausen Schwabenwiesen ---0,52,2--
Regen Schneeregen
Warthausen-Barabein Barabein 20---2,8---
Regen
Weingarten Laurastraße---1,0---
+ 1,8 ° C um 5.00 Uhr
Regen Nieselregen
Weingarten Hoyerstraße-------
Weingarten Marienstraße---1,0---
Regen
Wolfegg-Veesers Veesers 1-------
Wolpertswende Aulendorfer Str. 17---0,40,4--
Regen Schneeregen Schnee

Stillgelegte Niederschlagsstationen    -    derzeit 49 Stationen

StationLetzte Meldung22.03.23.03.24.03.25.03.26.03.27.03.28.03.Bemerkung 25.03.
Allmannsweiler Eggatsweilerstr.2802.09.2014-------
Aulendorf-Rugetsweiler Erikaweg 325.07.2013-------
Aulendorf-Zollenreute Imterstraße 1209.02.2019-------
Bad Saulgau Willi-Burth-Straße19.09.2011-------
Bad Saulgau Eichendorffweg28.03.2013-------
Bad Saulgau Seewattenstraße 12815.01.2014-------
Bad Saulgau-Lampertsweiler Valentinstr. 2618.02.2015-------
Bad Schussenried-Steinhausen Drosselgasse 4/126.09.2012-------
Bad Waldsee-Michelwinnanden Michelberg 531.12.2014-------
Bad Waldsee-Osterhofen Hochwaldgasse 406.03.2015-------
Bad Waldsee-Steinach Hofraingasse 1510.11.2013-------
Bad Wurzach-Dietmanns Postweg 519.01.2019-------
Bad Wurzach-Haidgau Wengener Straße 507.10.2012-------
Bad Wurzach-Ziegelbach Ziegelbach-Greut 507.11.2014-------
Bergatreute Bolanden 113.02.2012-------
Betzenweiler Offinger Straße 505.01.2017-------
Burgrieden Am Nonnenberg 328.10.2013-------
Burgrieden-Rot Schmiedgasse 518.09.2013-------
Eberhardzell Schillerstraße05.07.2010-------
Ehingen Am Elzengraben17.06.2016-------
Gammertingen Schillerstraße 2216.01.2016-------
Griesingen Blumenstraße 906.10.2015-------
Günzburg Erlenbadweg 34 1/231.12.2010-------
Hoßkirch Kirchstraße 805.01.2018-------
Ingoldingen-Grodt Ingoldinger Weg 1919.11.2016-------
Kisslegg Kirchmoosstraße02.05.2011-------
Krauchenwies-Hausen Rosenrain 123.11.2013-------
Kressbronn Irisstraße 410.03.2010-------
Leutkirch-Ottmannshofen Spitalriedstraße 527.07.2012-------
Leutkirch-Rotis Rotis 5/208.05.2016-------
Leutkirch-Wuchzenhofen Untere Kirchstraße 18/119.09.2016-------
Mietingen Hangweg 1530.12.2017-------
Mössingen-Bästenhardt Weissdornweg 721.07.2014-------
Ostrach Heiligenberger Straße19.08.2013-------
Pfullendorf Ringstraße 18.03.2012-------
Ravensburg Olgastraße30.10.2016-------
Seltmans Amselweg 2209.04.2013-------
Stuttgart-Bad Cannstatt Beuthener Str. 6703.02.2013-------
Stuttgart-Möhringen Glashütter Weg 1023.04.2017-------
Stuttgart-Rohr Hirschsprung 307.11.2012-------
Talheim Im Schecken 2121.08.2016-------
Tannheim Eggmannstr. 42 22.10.2017-------
Tettnang-Ramsbach Jahnstr. 24/126.03.2011-------
Tuttlingen-Möhringen Belchenstraße01.01.2015-------
Ummendorf Bergstraße23.10.2017-------
Vogt Mühlwies 1822.05.2015-------
Wangen-Atzenberg Keplerweg 324.02.2019-------
Weingarten Bischof-Sproll-Straße30.06.2011-------
Wilhelmsdorf Riedhauser Straße 28.10.2012-------
Wilhelmsdorf Seefeld20.08.2013-------
Wurmlingen An der Steig 3014.10.2016-------
Die Niederschlagswerte des gewählten Tages lassen sich durch Klicken auf das Datum sortieren.
Die Angaben sind in l/m².

Wetterbeobachtungen Legende:

  • Regen
  • Nieselregen
  • Schneeregen
  • Schnee
  • Graupel
  • Eiskörner
  • Hagel
  • Bodennebel
  • Gewitter
  • Nebelnässe
  • Schneegriesel

Grafische Darstellung der Tagesniederschläge vom 25.03.2019

< 24.03.201926.03.2019 >Monats- und Jahresniederschlag


 
wetterstationen
wetterstationen
- derzeit 83 Stationen
niederschlagsdatenbank
wetterstationen
- kartographische Darstellung
niederschlagsdatenbank
niederschlagsstationen
- derzeit 112 Stationen
niederschlagsdatenbank
niederschlagsstationen
- kartographische Darstellung
 
  treffpunkt & service
--- Anzeigen --------------------------------
zugriffe:
insgesamt: 46.623.436
aktueller monat: 625
heute: 625
momentan online: 43
 
 
monatshöchstwert: 653.625
vorheriger monat: 364.213
gestern: 13.565
tageshöchstwert: 57.073
 
wetterwarte süd
 
konradstraße 3
info@wetterwarte-sued.com
roland roth
 
88427 bad schussenried